Wind_Speed
13 13 14 17 19 21 24 27 30 34 38 42 43 45 48 51 53 56 58 59 60 61 63 64 64 65 67 67 68 69 70 71 72 73 73 74 74 75 74 74 73 72 70 66
14 14 15 19 22 23 27 31 34 37 40 44 46 49 51 53 56 60 62 63 64 66 67 67 68 69 69 69 70 70 70 70 70 70 71 72 73 74 75 75 75 75 74 71
16 16 18 22 24 26 30 35 38 40 43 46 48 51 54 57 60 63 65 66 67 68 69 70 69 68 67 66 64 62 61 59 58 58 59 59 61 63 65 67 69 69 71 71
20 21 21 24 26 29 33 37 41 42 45 48 51 54 56 60 64 66 67 68 69 69 69 67 65 62 60 57 54 51 48 45 43 43 44 45 47 49 52 54 57 59 61 62
23 22 26 30 30 34 37 41 43 45 49 52 55 58 59 62 65 66 66 67 67 66 63 60 57 53 50 46 43 39 36 35 35 35 35 35 36 38 40 42 45 48 49 51
26 27 30 33 36 38 42 46 49 52 55 57 60 62 63 65 65 65 65 65 63 59 55 51 47 44 41 39 36 34 33 33 32 31 30 29 30 30 31 32 33 36 38 41
27 29 35 36 39 42 44 47 50 52 55 59 62 64 66 65 65 65 64 61 57 53 48 44 42 40 37 35 33 33 33 32 30 30 29 28 27 27 28 28 28 28 28 30
30 32 37 39 42 44 47 50 53 56 59 62 64 65 66 65 64 63 60 56 51 47 44 41 39 38 37 35 34 34 33 31 30 30 30 29 28 27 27 27 26 26 25 25
32 35 38 42 45 48 51 54 57 60 62 64 65 66 65 63 61 58 54 50 46 44 42 40 39 39 39 38 37 36 35 34 33 32 30 29 29 28 27 26 25 24 22 21
34 38 41 45 48 51 53 56 59 62 64 65 66 66 64 60 57 53 49 46 45 43 42 40 40 41 40 40 39 39 38 37 36 34 32 30 29 28 26 25 23 22 20 20
38 41 44 46 50 53 55 58 61 63 63 65 66 65 61 57 54 51 48 46 45 44 43 43 42 42 42 42 41 41 40 39 37 35 33 30 28 26 25 23 22 20 19 18
40 43 46 49 52 55 57 60 62 63 64 65 65 62 58 55 52 50 48 48 47 45 45 45 44 44 43 42 41 40 38 37 35 34 31 28 26 24 23 23 21 20 19 18
42 45 47 50 53 56 58 61 62 63 64 65 62 59 56 54 52 50 49 48 47 46 46 45 44 43 42 40 39 37 35 33 31 29 27 26 25 23 22 21 20 19 19 18
44 46 48 51 54 56 59 61 62 63 64 63 60 57 55 53 51 49 48 48 46 46 45 43 41 39 38 36 35 32 30 29 27 25 23 22 21 20 19 18 18 18 17 17
45 47 50 52 54 57 59 61 63 63 63 60 57 55 54 51 49 49 48 47 45 43 42 41 39 37 35 32 30 27 25 24 22 20 19 18 17 16 16 16 16 16 16 16
45 47 50 52 55 57 60 62 63 63 62 60 56 54 52 50 48 48 47 45 43 41 40 39 36 34 31 28 25 22 20 18 15 14 13 12 13 13 13 14 14 14 16 17
46 48 51 54 56 58 60 63 63 63 62 58 55 53 51 48 47 46 45 44 42 40 39 37 34 32 28 25 21 17 15 13 10 7 7 7 8 10 11 13 13 15 17 19
47 49 52 55 58 59 61 62 63 62 60 56 54 51 49 47 46 45 44 42 40 38 37 35 32 29 25 21 17 13 10 7 4 2 2 4 6 9 11 13 15 18 20 22
47 49 52 54 57 59 60 62 62 60 57 55 52 50 48 47 46 44 43 40 38 36 33 31 28 24 22 19 15 12 8 6 4 5 6 8 10 12 15 17 20 22 24 24
47 49 51 54 56 58 59 61 60 58 55 53 50 47 46 45 44 42 40 38 36 34 32 29 26 24 22 20 17 16 14 13 13 13 14 15 16 18 20 22 25 26 27 26
47 49 51 53 55 57 58 59 59 56 53 50 47 46 45 44 42 40 38 35 33 32 30 28 26 24 22 22 21 21 21 21 20 20 21 22 23 24 25 27 28 27 27 28
47 49 51 53 54 55 57 58 57 54 51 48 45 44 43 41 39 37 36 34 31 30 29 27 25 23 22 22 23 24 24 24 25 26 27 27 28 28 28 28 28 28 29 28
47 49 50 52 53 54 55 56 54 52 49 45 43 42 41 39 36 34 33 31 28 28 27 26 24 23 23 23 24 25 25 26 27 28 28 29 29 29 29 29 28 28 28 29
47 48 50 51 52 52 53 53 52 50 47 43 41 40 37 35 33 32 30 28 26 25 24 23 23 23 24 24 25 25 26 26 27 27 27 28 28 28 29 28 28 28 28 29
46 47 48 49 50 51 51 51 50 48 45 41 38 37 35 32 30 29 27 25 23 23 22 21 22 22 23 25 25 25 26 27 27 27 27 27 27 27 27 27 27 27 26 25
45 46 47 48 49 49 50 49 48 46 43 38 35 33 31 29 28 26 24 23 22 21 20 20 20 21 21 22 23 24 24 24 25 25 26 26 26 25 25 24 23 22 21 20
44 46 47 47 48 47 47 47 45 44 41 36 33 30 28 26 24 22 21 20 19 18 18 17 17 18 18 19 20 21 21 21 22 22 23 23 23 23 22 22 21 20 19 17
Wind_Direction
314 312 304 297 298 301 300 299 299 300 298 300 302 302 301 301 301 301 300 300 300 299 297 295 293 291 289 287 285 283 281 279 277 275 274 272 271 269 268 267 266 265 264 264
317 314 309 302 304 307 304 303 303 304 304 305 305 304 305 305 304 303 303 302 301 300 298 297 295 293 292 290 288 286 284 282 280 278 275 273 271 269 268 267 266 264 263 262
324 321 313 304 312 309 307 307 308 310 309 308 307 307 308 308 306 306 305 304 304 302 301 299 298 297 295 294 292 291 289 286 284 281 278 276 274 272 270 267 265 264 262 260
328 328 316 315 318 314 312 311 312 313 311 310 311 311 312 310 309 309 309 308 306 304 302 301 300 299 298 298 297 295 293 291 289 287 285 282 278 275 272 269 267 265 262 260
331 330 318 322 324 319 318 316 317 316 315 315 315 314 315 313 312 311 310 308 306 305 304 304 304 303 301 301 300 298 296 295 295 294 292 289 285 281 278 274 271 268 264 260
333 329 321 327 324 324 323 321 323 321 320 319 318 317 317 316 314 313 312 311 309 308 308 308 307 306 305 304 301 299 298 298 298 297 297 296 292 288 284 280 276 271 267 262
331 328 323 329 326 326 324 322 321 320 319 319 319 319 319 319 318 316 315 313 312 311 311 310 308 307 306 304 302 300 299 298 297 296 296 296 294 292 288 284 279 274 269 263
332 330 327 328 325 325 324 324 323 323 323 322 323 323 322 321 320 319 317 316 314 313 312 311 309 307 305 303 301 300 299 298 297 295 294 293 292 290 289 285 280 275 269 262
330 328 327 327 327 327 327 326 326 326 326 325 325 325 324 323 322 320 320 318 316 314 313 310 308 306 305 302 300 298 297 296 294 294 293 290 288 287 286 284 279 274 270 262
328 329 330 329 328 327 328 328 328 328 328 328 327 327 326 325 323 323 321 319 317 315 313 310 307 305 303 301 299 296 295 293 292 291 289 288 286 283 282 280 275 270 264 258
330 330 330 328 328 328 329 329 330 330 330 330 329 328 328 326 325 324 322 320 317 315 313 311 308 305 303 301 298 295 293 292 290 289 287 284 281 279 276 274 270 263 259 255
329 329 329 329 329 330 331 331 332 332 332 332 331 330 329 327 326 325 322 320 318 316 313 311 309 307 305 302 298 295 293 291 289 287 283 278 275 274 271 268 263 257 253 250
328 329 330 330 331 332 333 333 334 334 334 333 333 332 331 329 327 325 323 322 320 319 317 314 312 310 307 304 300 297 294 291 287 284 279 274 271 270 266 261 255 248 245 240
329 330 331 332 333 334 335 335 336 336 336 336 335 334 333 331 330 328 326 325 323 322 321 318 316 315 313 309 305 300 295 291 286 282 276 270 266 262 256 250 245 241 236 229
330 331 332 334 335 336 337 337 338 338 338 338 337 336 335 334 333 332 331 329 328 327 326 323 321 319 317 315 312 306 300 293 285 280 272 266 260 253 244 238 234 228 220 213
332 333 334 335 337 338 338 339 340 341 341 341 340 339 339 338 337 336 336 335 334 333 331 330 328 327 325 321 317 313 308 301 289 277 268 259 248 236 229 220 213 208 202 197
333 335 336 337 338 339 340 341 342 343 343 343 343 342 342 341 340 341 341 340 339 338 337 336 336 334 331 329 325 321 318 311 299 281 256 238 223 213 202 192 191 186 183 179
335 336 337 338 339 340 342 343 343 344 345 345 345 345 345 345 345 346 346 345 345 345 343 343 344 345 345 343 340 335 334 332 328 299 210 185 173 169 168 171 172 169 165 163
335 336 338 339 340 341 342 344 345 346 347 346 347 348 349 349 350 351 352 352 353 353 354 355 357 0 3 4 6 13 22 39 64 98 120 129 137 145 150 153 153 153 155 156
335 336 338 339 340 341 343 345 346 348 348 348 350 351 352 353 354 355 357 359 360 1 4 8 12 17 20 24 30 41 55 69 81 93 104 112 121 131 137 141 143 145 147 149
334 336 338 339 341 342 344 346 348 349 350 351 352 353 354 356 357 359 2 5 8 11 14 18 23 30 36 42 50 61 71 78 85 93 100 107 114 121 126 130 134 137 141 143
333 336 338 340 341 343 344 346 348 350 351 352 354 355 357 359 2 4 8 12 17 21 24 27 32 38 46 52 59 68 76 83 90 96 101 106 110 115 119 124 128 132 135 137
333 335 338 340 341 343 345 347 349 350 351 352 354 357 359 1 5 9 13 18 22 26 30 34 41 48 55 63 68 73 80 88 95 99 102 106 109 113 116 119 123 126 129 133
332 335 337 339 341 343 345 347 349 351 352 352 354 357 0 3 6 9 13 18 22 27 33 40 48 56 62 69 75 80 86 92 97 101 105 106 108 111 114 116 120 123 127 130
330 333 336 338 340 342 344 347 349 351 353 353 355 358 1 6 9 12 16 22 27 32 39 49 55 62 70 75 81 86 90 94 97 101 105 107 108 110 114 117 120 122 125 129
328 331 335 337 340 342 344 347 349 351 353 354 355 358 2 7 11 15 19 24 30 36 45 54 64 71 77 81 85 90 93 95 99 101 103 105 108 112 115 117 119 120 123 128
326 330 333 336 339 341 343 345 347 349 353 355 355 358 2 6 11 15 20 26 34 43 50 59 69 77 82 87 91 94 96 97 99 103 105 107 110 112 114 116 117 119 120 125
Height
5848 5846 5844 5842 5840 5837 5833 5829 5825 5819 5812 5806 5800 5795 5788 5781 5773 5765 5758 5751 5744 5737 5729 5723 5716 5709 5703 5697 5691 5686 5682 5678 5675 5672 5670 5668 5667 5667 5668 5669 5671 5673 5676 5680
5845 5842 5840 5838 5835 5832 5827 5822 5817 5812 5805 5798 5791 5784 5777 5769 5761 5752 5744 5736 5727 5719 5710 5703 5695 5688 5681 5674 5667 5662 5657 5653 5649 5646 5644 5642 5641 5641 5642 5643 5645 5648 5652 5657
5841 5839 5836 5833 5830 5826 5821 5815 5809 5803 5797 5789 5782 5774 5766 5757 5746 5737 5728 5718 5708 5699 5689 5681 5672 5664 5657 5650 5644 5638 5633 5629 5625 5622 5620 5618 5616 5616 5616 5617 5619 5622 5626 5631
5837 5835 5831 5830 5824 5819 5814 5807 5801 5795 5787 5779 5771 5762 5754 5743 5731 5721 5710 5699 5689 5678 5668 5659 5651 5642 5635 5629 5623 5618 5614 5610 5606 5603 5601 5599 5597 5596 5595 5595 5597 5599 5603 5607
5833 5830 5825 5821 5817 5811 5806 5798 5792 5785 5776 5768 5758 5749 5741 5728 5716 5704 5693 5681 5670 5659 5649 5640 5632 5624 5618 5613 5608 5603 5600 5596 5593 5590 5587 5585 5583 5581 5579 5579 5579 5581 5584 5587
5829 5825 5820 5817 5810 5803 5798 5789 5780 5771 5763 5754 5744 5734 5726 5713 5700 5687 5675 5663 5651 5641 5632 5625 5617 5611 5605 5600 5596 5592 5589 5586 5583 5580 5577 5574 5572 5570 5568 5566 5566 5566 5568 5571
5826 5821 5814 5810 5802 5797 5791 5784 5774 5764 5754 5743 5732 5720 5708 5696 5683 5670 5657 5645 5635 5626 5618 5612 5605 5599 5594 5590 5586 5582 5579 5576 5573 5570 5568 5565 5563 5561 5559 5557 5556 5556 5557 5558
5821 5816 5811 5804 5796 5790 5783 5773 5763 5753 5742 5730 5718 5705 5692 5679 5666 5653 5642 5631 5621 5613 5607 5601 5595 5589 5585 5581 5577 5573 5569 5566 5564 5561 5558 5556 5555 5553 5551 5549 5548 5548 5548 5549
5817 5813 5805 5797 5789 5781 5772 5762 5752 5741 5729 5716 5703 5691 5677 5664 5652 5640 5629 5619 5610 5603 5596 5590 5584 5579 5574 5570 5565 5562 5559 5556 5553 5551 5549 5547 5545 5544 5542 5541 5540 5540 5540 5541
5811 5805 5798 5790 5781 5773 5763 5753 5741 5729 5716 5703 5690 5677 5664 5651 5639 5628 5618 5609 5600 5592 5586 5579 5574 5568 5563 5558 5553 5549 5547 5544 5542 5540 5538 5537 5535 5534 5533 5533 5532 5533 5534 5535
5805 5798 5791 5784 5774 5764 5754 5743 5731 5718 5705 5692 5678 5665 5651 5639 5628 5617 5608 5599 5590 5582 5575 5568 5562 5556 5550 5545 5540 5536 5533 5531 5529 5528 5527 5526 5525 5525 5525 5525 5525 5526 5528 5529
5799 5792 5784 5776 5766 5755 5744 5733 5721 5708 5695 5681 5666 5653 5640 5629 5617 5607 5597 5588 5579 5571 5563 5556 5549 5542 5536 5531 5526 5522 5519 5517 5516 5515 5514 5514 5515 5516 5516 5517 5518 5520 5522 5524
5793 5785 5777 5768 5758 5747 5735 5723 5711 5698 5684 5670 5656 5643 5630 5619 5608 5597 5587 5577 5568 5559 5551 5543 5536 5529 5523 5517 5513 5509 5506 5504 5503 5503 5503 5504 5505 5506 5508 5509 5511 5514 5516 5519
5786 5778 5770 5760 5750 5739 5727 5715 5702 5689 5675 5660 5647 5634 5622 5610 5599 5588 5578 5567 5557 5548 5540 5531 5524 5517 5511 5506 5501 5497 5495 5493 5492 5492 5493 5494 5496 5497 5500 5502 5505 5508 5512 5515
5779 5771 5762 5752 5742 5731 5719 5707 5694 5681 5667 5653 5639 5626 5614 5602 5591 5580 5569 5558 5548 5539 5530 5522 5515 5508 5501 5496 5491 5488 5485 5483 5483 5483 5484 5486 5488 5490 5493 5496 5499 5503 5508 5512
5773 5764 5755 5746 5735 5724 5712 5699 5686 5672 5658 5645 5632 5620 5607 5595 5584 5573 5562 5551 5541 5532 5523 5515 5507 5500 5493 5488 5484 5481 5478 5477 5476 5476 5478 5480 5482 5485 5488 5492 5496 5500 5505 5511
5766 5758 5748 5738 5728 5717 5704 5691 5678 5665 5651 5638 5626 5614 5602 5590 5579 5568 5557 5546 5536 5526 5517 5509 5502 5495 5489 5483 5479 5476 5474 5473 5472 5473 5474 5476 5479 5482 5486 5490 5494 5499 5505 5510
5760 5751 5741 5731 5720 5710 5698 5686 5672 5659 5645 5633 5621 5609 5597 5586 5575 5564 5553 5543 5533 5524 5515 5506 5499 5492 5486 5481 5477 5475 5473 5472 5472 5473 5474 5476 5478 5482 5485 5490 5495 5501 5507 5513
5754 5745 5736 5726 5715 5704 5692 5680 5668 5654 5641 5629 5617 5606 5594 5583 5573 5562 5551 5541 5532 5523 5515 5507 5499 5493 5488 5483 5479 5476 5475 5474 5474 5475 5476 5478 5480 5484 5488 5492 5498 5504 5511 5517
5749 5740 5731 5721 5711 5699 5688 5676 5663 5650 5638 5626 5615 5604 5594 5583 5572 5562 5552 5542 5532 5524 5516 5509 5503 5497 5493 5489 5485 5482 5480 5479 5479 5480 5481 5483 5486 5489 5493 5498 5504 5510 5517 5523
5744 5735 5726 5717 5706 5695 5683 5671 5660 5647 5636 5625 5614 5604 5593 5583 5573 5563 5554 5545 5537 5529 5521 5515 5509 5504 5500 5496 5492 5489 5488 5487 5487 5488 5489 5491 5494 5498 5502 5507 5513 5519 5524 5530
5738 5730 5721 5712 5702 5691 5680 5668 5657 5645 5634 5624 5614 5604 5594 5585 5575 5566 5557 5548 5541 5534 5528 5522 5516 5511 5507 5504 5501 5499 5498 5498 5498 5499 5501 5503 5506 5509 5513 5518 5523 5528 5534 5539
5733 5725 5716 5707 5697 5687 5677 5666 5654 5643 5633 5623 5614 5605 5595 5586 5578 5570 5562 5555 5547 5541 5535 5530 5525 5520 5517 5514 5512 5510 5510 5510 5510 5512 5513 5516 5519 5522 5525 5529 5534 5538 5543 5549
5727 5720 5711 5703 5693 5684 5674 5663 5652 5642 5632 5622 5614 5605 5597 5589 5581 5574 5566 5560 5554 5548 5543 5538 5534 5530 5527 5525 5523 5522 5521 5522 5522 5524 5526 5528 5531 5534 5537 5541 5545 5549 5554 5559
5722 5715 5707 5699 5690 5681 5671 5661 5651 5641 5632 5623 5615 5607 5598 5591 5584 5577 5571 5565 5560 5555 5550 5546 5543 5540 5538 5536 5534 5534 5534 5534 5535 5536 5538 5540 5543 5545 5548 5552 5555 5559 5563 5568
5716 5710 5702 5694 5685 5676 5667 5658 5649 5640 5632 5623 5616 5608 5601 5594 5588 5582 5576 5571 5566 5562 5557 5554 5551 5549 5547 5546 5545 5545 5545 5546 5547 5547 5549 5551 5553 5556 5559 5562 5565 5568 5572 5575
5710 5703 5696 5689 5681 5673 5665 5656 5647 5639 5631 5623 5616 5610 5603 5597 5592 5586 5581 5577 5572 5569 5565 5562 5559 5557 5556 5555 5555 5555 5555 5556 5557 5558 5559 5561 5563 5565 5568 5570 5573 5576 5579 5582